ONEWEB-0320, 49190

Orbit data source: Space-Track

ONEWEB-0320, 49190 is a payload satellite owned by One Web (NAA) (UK) in LEO that was launched on Tue, 14 Sep 2021 UTC via a SOYUZ-2-1B launch vehicle from the Tyuratam Missile And Space Complex (TTMTR). Payload-class satellites include a variety of spacecraft equipped with specific instruments for various scientific and technological missions. These include communications satellites like Starlink; space stations such as the ISS; scientific satellites like the Hubble; Earth observation satellites from companies like Planet Labs, Umbra, and HawkEye 360; GPS; miniature CubeSats for education and research; and military/defense satellites.

Loading next visibility...
Identifier
49190, 2021-083E
Orbit
LEO
Country
Flag of UKUK
Related business
Manufacturer
One Web
Mission
Operational Commercial Communications
Bus & Motor
ARROW, Unknown motor
Mass
148 kg wet, ~140 kg dry
Launch date (UTC)
2021-09-14 (4 years ago)
Launch vehicle
SOYUZ-2-1B
Launch site
Tyuratam Missile And Space Complex (TTMTR)
Object type
Payload
Rocket body
Debris
Shape & HBR
Trap Box + 2 Pan, 2.5 m
Radar Cross Section
2.032 m², Medium (>0.1 m² and < 1m²)

Expand to show TLE details & history
Last TLE update: 17 hours ago

TLE from 17 hours ago
0 ONEWEB-0320
1 49190U 21083E   25250.12961460  .00000075  00000-0  15862-3 0  9997
2 49190  87.9179  31.6767 0001770  96.7228 263.4105 13.18684925192678
Epoch: 2025-09-07T03:06Z
TLE epoch observation values (Epoch: 2025-09-07T03:06:38.701Z)
Latitude
-0.00008°
Longitude
-1.43807°
Altitude
1,192.801 km
Speed
7.257 km/s
True Right ascension
02h 06m 42s
True Declination
0° 00' 00"
Sunlit
Object was in full shadow at epoch
Visualization orbit readout
Latitude
Unknown
Longitude
Unknown
Altitude
Unknown
Speed
Unknown
Apparent Right ascension
Unknown
Apparent Declination
Unknown
Sunlit
N/A
Visualization observer readout
Local Sidereal Time
11:45:09
Azimuth
Unknown
Elevation
Unknown
Doppler factor
Unknown
Orbital elements
Apogee altitude
1,188.193 km
Perigee altitude
1,185.515 km
Semi-major axis
7,564.991 km
Eccentricity
0.00018
Inclination
87.9179°
RAAN
31.6767°
Arg. of periapsis
96.7228°
True anomaly
263.39035°
Mean anomaly
263.4105°
Eccentric anomaly
263.40043°
Mean motion
3.29861 °/min
Orbital period
109.14 mins
BSTAR
0.00015862
Loading maneuver chart data...
Computing Atmospheric mass density...
Loading historical data...
Loading historical data...
Loading historical data...
Loading historical data...
Loading historical data...
Loading historical data...
Loading historical data...

Documentation

Showing up to 5 results
|